Welcome to the New NWS' Forecast!
Most changes are behind the scenes, but click here for differences you might notice.
Latest weather observations around

Olathe, Johnson County Executive Airport (KOJC)

Using English Units (Switch to International System of Units)
Date/ Time (CST) Wind (mph) Vis. (mi) Weather Sky Cond. Temp (°F) Rel. Humidity Wind Chill (°F) Heat Index (°F) Pressure Precip. (in)
Air Dwpt 6 hour Altimeter (inHg) Sea level (inHg) 1 hr 3 hr 6 hr
Max Min
Jan 23 12:53 WNW 9 10 Cloudy OVC014 29 24     82% 20   30.19 30.22      
Jan 23 11:53 WNW 8 10 Cloudy OVC013 28 23     81% 20   30.2 30.23      
Jan 23 10:53 WNW 8 10 Cloudy OVC012 27 24     89% 19   30.19 30.23      
Jan 23 09:53 NW 9 10 Cloudy OVC011 27 24     89% 18   30.17 30.21      
Jan 23 08:53 NNW 11 10 Cloudy OVC011 27 24     89% 17   30.13 30.16      
Jan 23 07:53 NNW 13 10 Cloudy OVC010 27 24     89% 16   30.11 30.14      
Jan 23 06:53 NW 15 10 Cloudy OVC010 27 25     92% 15   30.09 30.12      
Jan 23 05:53 WNW 14 10 Cloudy OVC011 27 25     92% 16   30.04 30.07      
Jan 23 04:53 NW 11 10 Cloudy OVC013 28 24     85% 18   30.01 30.04      
Jan 23 04:38 NW 16 10 Cloudy OVC014 28 24     85% 16   30.01        
Jan 23 03:53 NW 15 10 Cloudy OVC015 28 24     85% 17   29.97 30      
Jan 23 02:53 NW 21 10 Cloudy and Windy OVC016 29 25     85% 16   29.96 29.98      
Jan 23 01:53 NW 13 10 Cloudy OVC016 29 25     85% 19   29.92 29.95      
Jan 23 00:53 NW 16 10 Cloudy OVC019 30 25     81% 19   29.88 29.91      
Jan 22 23:53 WNW 18 10 Cloudy OVC018 29 25     85% 16   29.85 29.88 0   0
Jan 22 22:53 NW 15 7 Light Snow OVC016 29 26     89% 18   29.82 29.84 0    
Jan 22 22:26 NW 21 4 Light Snow and Fog/Mist OVC016 29 27     92% 16   29.8   0    
Jan 22 22:05 NW 17 3 Light Snow and Fog/Mist OVC014 29 27     92% 17   29.78   0    
Jan 22 21:53 WNW 18 2 Light Snow and Fog/Mist BKN014 OVC019 29 28     96% 16   29.77 29.79 0    
Jan 22 21:48 WNW 17 2.5 Light Snow and Fog/Mist BKN014 OVC021 30 27     86% 18   29.77   0    
Jan 22 21:12 NW 26 9 Cloudy and Breezy OVC015 31 27     85% 17   29.73        
Jan 22 20:53 NW 20 10 Cloudy and Windy OVC014 31 27     85% 19   29.73 29.75 0 0  
Jan 22 20:30 WNW 21 4 Light Snow and Fog/Mist OVC014 30 28     92% 17   29.71   0    
Jan 22 19:53 NW 18 5 Light Snow and Fog/Mist OVC016 31 28     89% 19   29.69 29.71 0    
Jan 22 18:56 WNW 16 3 Light Snow and Fog/Mist OVC010 31 29     92% 20   29.64   0    
Jan 22 18:53 WNW 17 2.5 Light Snow and Fog/Mist OVC008 30 30     100% 18   29.64 29.66 0    
Jan 22 18:37 WNW 14 1.5 Light Snow and Fog/Mist BKN007 OVC013 30 30     100% 19   29.63   0    
Jan 22 18:27 WNW 11 2 Light Snow and Fog/Mist BKN007 OVC012 30 29     96% 21   29.62   0    
Jan 22 18:13 W 14 1.5 Light Snow and Fog/Mist BKN009 OVC014 30 29     96% 19   29.61   0    
Jan 22 18:05 W 15 2 Light Snow and Fog/Mist BKN010 OVC014 30 29     96% 19   29.6   0    
Jan 22 17:53 W 10 3 Light Snow and Fog/Mist BKN010 OVC013 30 29     96% 21   29.59 29.61 0   0
Jan 22 17:36 W 15 4 Light Snow and Fog/Mist OVC010 30 29     96% 19   29.58   0    
Jan 22 17:16 W 14 2 Light Snow and Fog/Mist OVC009 30 29     96% 19   29.57   0    
Jan 22 17:04 W 16 1.5 Light Snow and Fog/Mist BKN008 OVC014 30 30     100% 19   29.56   0    
Jan 22 16:53 W 16 1.25 Light Snow and Fog/Mist OVC012 31 30     96% 20   29.56 29.57 0    
Jan 22 16:41 W 11 2 Light Snow and Fog/Mist OVC013 31 29     92% 22   29.55   0    
Jan 22 16:02 W 16 10 Cloudy OVC015 32 29     88% 21   29.52        
Jan 22 15:53 W 13 10 Cloudy OVC013 32 29     88% 22   29.52 29.53      
Jan 22 15:06 WNW 16 10 Cloudy BKN011 OVC014 33 31     92% 23   29.48        
Jan 22 14:53 W 18 10 Cloudy OVC009 33 32     96% 22   29.47 29.48 0 0  
Jan 22 13:53 WSW 10 10 Cloudy OVC008 34 33     96% 26   29.45 29.45 0    
Jan 22 12:53 WSW 15 8 Unknown Precipitation OVC008 36 35     96% 27   29.44 29.44 0    
Jan 22 12:14 SW 13 10 Cloudy OVC009 36 35     96% 27   29.44        
Jan 22 11:53 SSW 10 10 Cloudy OVC011 36 35     96% 29   29.46 29.46      
Jan 22 11:10 S 9 5 Fog/Mist OVC012 35 34     96% 28   29.46        
Jan 22 10:53 SSW 11 2.5 Fog/Mist OVC012 35 34     96% 27   29.47 29.47      
Jan 22 10:42 SSW 13 5 Fog/Mist BKN013 OVC018 35 33     92% 26   29.47        
Jan 22 09:53 SSW 13 10 Cloudy OVC018 36 33     89% 27   29.47 29.48      
Jan 22 08:53 S 13 10 Cloudy OVC016 35 32     88% 26   29.47 29.47      
Jan 22 07:53 S 9 10 Cloudy OVC016 35 32     88% 28   29.48 29.48      
Jan 22 06:53 SSW 11 10 Cloudy OVC015 35 33     92% 27   29.49 29.49      
Jan 22 06:29 SW 11 10 Cloudy OVC015 36 33     89% 28   29.5        
Jan 22 06:06 SSW 11 10 Mostly Cloudy BKN013 BKN034 36 34     92% 28   29.49        
Jan 22 05:53 SW 10 10 Partly Cloudy FEW014 SCT033 36 34     92% 29   29.48 29.48     0
Jan 22 04:53 SW 7 9 Clear CLR 38 37     97% 33   29.46 29.46      
Jan 22 04:19 SW 8 9 Partly Cloudy SCT008 40 39     97% 34   29.46        
Jan 22 04:07 SW 9 7 Mostly Cloudy FEW004 BKN010 41 41     100% 35   29.45        
Jan 22 03:53 SW 11 6 Fog/Mist SCT005 BKN008 43 43     100% 37   29.45 29.44      
Jan 22 03:49 SW 13 5 Fog/Mist SCT005 45 45     100% 38   29.45        
Jan 22 02:53 S 7 3 Fog/Mist CLR 46 46     100% 42   29.45 29.44   0  
Jan 22 02:25 S 6 6 Fog/Mist FEW008 SCT012 SCT020 47 47     100% 44   29.46        
Jan 22 02:15 S 6 6 Fog/Mist SCT009 BKN013 BKN020 47 46     97% 44   29.47        
Jan 22 02:05 SSW 3 7 Mostly Cloudy BKN009 BKN013 46 46     100% 45   29.47        
Jan 22 01:53 Calm 8 Mostly Cloudy BKN011 47 47     100%     29.46 29.45      
Jan 22 01:35 ENE 7 8 Partly Cloudy SCT013 SCT028 47 47     100% 44   29.45        
Jan 22 01:20 NE 6 8 Mostly Cloudy BKN016 BKN028 BKN110 48 47     96% 45   29.47        
Jan 22 00:53 3 9 Mostly Cloudy FEW019 SCT027 BKN110 50 49     96% 49   29.5 29.49 0    
Jan 22 00:38 WSW 7 10 Cloudy FEW008 BKN022 OVC029 52 51     97%     29.51   0    
Jan 22 00:30 W 6 10 Mostly Cloudy SCT013 BKN020 BKN031 52 51     97%     29.51   0    
Jan 22 00:21 W 9 10 Mostly Cloudy SCT011 BKN031 BKN047 52 51     97%     29.52   0    
Jan 22 00:02 S 14 4 Thunderstorms and Rain and Fog/Mist SCT009 BKN050 OVC100 54 53     97%     29.52   0    
Jan 21 23:55 S 8 2.5 Thunderstorms and Heavy Rain and Fog/Mist SCT009 BKN043 OVC095 53 53     100%     29.53   0    
Jan 21 23:53 S 7 3 Rain and Fog/Mist SCT009 BKN039 OVC095 53 53     100%     29.53 29.52 0   0
Jan 21 23:32 S 7 8 Cloudy SCT009 BKN100 OVC110 52 52     100%     29.51        
Jan 21 23:03 S 5 10 Mostly Cloudy BKN007 BKN014 54 54     100%     29.53        
Jan 21 22:53 W 3 10 Mostly Cloudy FEW007 BKN014 54 53     97%     29.54 29.52      
Jan 21 22:51 WNW 5 10 Mostly Cloudy SCT009 BKN014 54 54     100%     29.54        
Jan 21 20:53 SSE 11 10 Mostly Clear FEW039 55 52     89%     29.59 29.58   0  
Jan 21 20:31 SSE 11 10 Mostly Cloudy SCT029 BKN037 56 52     87%     29.59        
Jan 21 20:19 SSE 11 10 Mostly Cloudy BKN029 BKN037 BKN047 57 52     83%     29.6        
Jan 21 19:53 SSE 9 10 Mostly Cloudy SCT033 BKN041 BKN050 57 52     83%     29.61 29.6 0    
Jan 21 18:57 SE 5 10 Cloudy BKN038 BKN047 OVC065 57 52     83%     29.61   0    
Jan 21 18:53   10 Light Rain SCT038 BKN047 OVC065 58 52     81%     29.61 29.6 0    
Jan 21 17:53 SSE 7 10 Mostly Cloudy BKN044 BKN060 59 51     75%     29.63 29.62      
Jan 21 16:53 SSE 10 10 Clear CLR 62 51     67%     29.63 29.62      
Jan 21 15:53 S 9 10 Cloudy OVC060 63 51     65%     29.67 29.67      
Jan 21 14:53 SSW 20 10 Partly Cloudy and Windy FEW033 SCT046 63 51     65%     29.68 29.67      
Jan 21 13:53 SSW 14 10 Cloudy OVC039 60 51     72%     29.7 29.69      
Jan 21 12:53 SSW 10 10 Cloudy FEW024 OVC032 59 51     75%     29.72 29.72      
Jan 21 11:53 SSW 11 10 Cloudy SCT026 OVC033 58 52     81%     29.75 29.75      
Jan 21 10:53 SSW 14 10 Cloudy FEW023 OVC030 57 52     83%     29.78 29.78      
Jan 21 10:00 SSW 8 10 Cloudy OVC021 52 50     93%     29.78        
Jan 21 09:53 SSE 3 9 Cloudy BKN014 OVC021 51 49     92%     29.78 29.78      
Jan 21 08:53 SSE 5 7 Cloudy BKN014 OVC021 49 49     100% 47   29.78 29.79      
Jan 21 08:35 SE 6 7 Cloudy OVC014 49 49     100% 46   29.78        
Jan 21 08:25 SE 6 7 Cloudy OVC015 50 49     96% 48   29.77        
Jan 21 08:12 SE 6 7 Cloudy BKN013 OVC019 49 49     100% 46   29.77        
Jan 21 07:53 SE 6 7 Cloudy OVC015 49 49     100% 46   29.78 29.78      
Jan 21 06:53 SE 7 9 Cloudy OVC016 49 48     97% 46   29.78 29.78      
Jan 21 05:53 SE 8 9 Cloudy OVC015 48 48     100% 44   29.78 29.78      
Jan 21 04:53 SE 8 9 Cloudy BKN018 OVC023 47 47     100% 43   29.79 29.79      
Jan 21 03:53 SE 9 8 Cloudy OVC017 46 45     96% 41   29.8 29.79      
Jan 21 02:53 S 9 10 Cloudy OVC017 50 49     96% 46   29.82 29.81      
Jan 21 02:08   10 Cloudy OVC015 50 49     96%     29.81        
Jan 21 01:53 S 10 10 Cloudy OVC013 50 49     96% 46   29.81 29.81      
Jan 21 00:53 S 7 6 Fog/Mist BKN011 41 41     100% 36   29.82 29.83      
Jan 21 00:45 S 6 6 Fog/Mist BKN011 41 41     100% 37   29.82        
Jan 20 23:53 SSE 6 7 Clear CLR 39 39     100% 35   29.83 29.84      
Jan 20 22:53 SE 5 10 Clear CLR 41 41     100% 38   29.83 29.84      
Jan 20 20:53 E 3 6 Fog/Mist CLR 41 41     100% 39   29.84 29.85      
Jan 20 19:53 E 5 9 Clear CLR 44 43     96% 41   29.84 29.85      
Jan 20 18:53 E 6 10 Clear CLR 46 44     93% 43   29.85 29.85      
Jan 20 17:53 E 5 10 Clear CLR 49 44     83% 47   29.85 29.85      
Jan 20 16:53 SE 3 10 Partly Cloudy SCT027 51 45     79%     29.84 29.84      
Jan 20 15:53 S 7 10 Cloudy OVC025 52 45     77%     29.83 29.83      
Jan 20 14:53 S 9 10 Cloudy OVC022 51 45     79%     29.83 29.84      
Jan 20 13:53 S 13 10 Cloudy OVC020 51 45     79%     29.84 29.84      
Jun 11 16:53 S 25 10 Clear and Windy CLR 87 70     57%   92 29.81 29.77      
Jun 10 20:53 S 15 10 Clear CLR 79 69     72%   80 29.78 29.74      
Jun 09 23:53 S 7 10 Clear CLR 69 60     73%     29.84 29.8      
Jun 09 06:53 S 3 10 Clear CLR 59 55     87%     29.93 29.9      
Jun 08 02:53 ESE 6 10 Clear CLR 62 50     65%     30.04 30.01      
Jun 07 18:53 ESE 5 10 Clear CLR 76 51     42%   75 30.05 30.02      
Jun 07 17:06 SSE 7 10 Clear CLR 78 50     37%   77 30.06        
Jun 07 07:53 NE 5 10 Clear CLR 65 54     68%     30.11 30.09      
Jun 06 07:53 ENE 10 10 Clear CLR 67 58     73%     30 29.97